Location: Caserta
(41.0670°N, 14.3330°E)
Time: 00:21:16
(UTC+01:00)

STARLINK-1329 - Pass Details

Date: 09 October 2020
Orbit: 548 x 551 km, 53.0° (Epoch: 27 October)

Event Time Altitude Azimuth Distance (km) Brightness Sun altitude
Exits shadow 04:47:37 16° 2° (N) 1,505 6.0 -27.0°
Drops below altitude 10° 04:50:04 10° 38° (NE) 1,828 6.9 -26.6°
Sets 04:53:06 0° 61° (ENE) 2,722 8.4 -26.0°
